Location: Proctor
(47.8934°N, 114.3048°W)
Time: 06:42:45
(UTC+00:00)

CAS-6 - Pass Details

Date: 02 July 2022
Orbit: 613 x 634 km, 97.9° (Epoch: 15 August)

Event Time Altitude Azimuth Distance (km) Brightness Sun altitude
Exits shadow 05:45:06 24° 163° (SSE) 1,319 ? -14.4°
Maximum altitude 05:47:46 86° 74° (ENE) 634 ? -14.6°
Drops below altitude 10° 05:52:08 10° 347° (NNW) 2,003 ? -15.0°
Sets 05:54:19 0° 347° (NNW) 2,911 ? -15.1°
